{"data":{"norad_id":82402,"epoch":"2026-09-18T08:45:32.738400Z","epoch_age_seconds":198906,"freshness":"STALE","line1":"1 82402U          26261.36496225  .00004030  00000+0  26954-3 0  9995","line2":"2 82402  86.6514  34.3028 0010389 228.7616 131.2725 15.06641284496536","mean_motion":15.06641284,"eccentricity":0.0010389,"inclination_deg":86.6514,"raan_deg":34.3028,"arg_perigee_deg":228.7616,"mean_anomaly_deg":131.2725,"bstar":0.00026954,"rev_number":49653,"period_min":95.576831412513,"perigee_km":539.27817946986,"apogee_km":553.66613237404,"semimajor_km":6924.609155922,"source":"CELESTRAK","updated_at":"2026-09-20T09:00:32.433826Z"}}